Back to catalog

CZ-6A DEB

AliveSSO
NORAD 54298·DEBRIS·🇨🇳 China

Launched Nov 11, 2022 from Taiyuan Satellite Launch Center

Loading…

Next Passes (next 24 hours)

TLE

FreshSource: Space-Track

Epoch: Sep 13, 2026, 17:06 UTC

1 54298U 22151AR  26256.71314491 -.00000043  00000-0 -90898-7 0  9990
2 54298  98.8426 242.7668 0062757 111.5538 249.2335 14.06959142196480

Track CZ-6A DEB in real time with AllMySat

Download on the App Store